Time,TemperatureF,DewpointF,PressureIn,WindDirection,WindDirectionDegrees,WindSpeedMPH,WindSpeedGustMPH,Humidity,HourlyPrecipIn,Conditions,Clouds,dailyrainin,SoftwareType,DateUTC
2013-02-18 00:00:00,32.8,24.1,29.98,SSE,162,16.0,18.0,70,0.00,,,0.00,VWS V14.01,2013-02-18 06:00:00,
2013-02-18 00:04:00,32.9,24.2,29.98,SW,219,12.0,18.0,70,0.00,,CLR,0.00,VWS V14.01,2013-02-18 06:04:00,
2013-02-18 00:09:00,33.0,24.3,29.98,SSW,207,6.0,8.0,70,0.00,,CLR,0.00,VWS V14.01,2013-02-18 06:09:00,
2013-02-18 00:10:00,33.0,24.3,29.98,SW,215,6.0,18.0,70,0.00,,,0.00,VWS V14.01,2013-02-18 06:10:00,
2013-02-18 00:14:00,33.0,24.3,29.97,South,172,8.0,23.0,70,0.00,,CLR,0.00,VWS V14.01,2013-02-18 06:14:00,
2013-02-18 00:19:00,33.1,24.4,29.97,South,189,5.0,13.0,70,0.00,,CLR,0.00,VWS V14.01,2013-02-18 06:19:00,
2013-02-18 00:20:00,33.0,24.3,29.97,SSE,163,13.0,23.0,70,0.00,,,0.00,VWS V14.01,2013-02-18 06:20:00,
2013-02-18 00:24:00,33.1,24.4,29.97,South,180,7.0,16.0,70,0.00,,CLR,0.00,VWS V14.01,2013-02-18 06:24:00,
2013-02-18 00:29:00,33.2,24.5,29.96,SSW,198,8.0,13.0,70,0.00,,CLR,0.00,VWS V14.01,2013-02-18 06:29:00,
2013-02-18 00:30:00,33.2,24.5,29.97,SSW,193,7.0,16.0,70,0.00,,,0.00,VWS V14.01,2013-02-18 06:30:00,
2013-02-18 00:34:00,33.3,24.6,29.97,South,173,9.0,19.0,70,0.00,,CLR,0.00,VWS V14.01,2013-02-18 06:34:00,
2013-02-18 00:39:00,33.5,24.4,29.96,SE,130,10.0,10.0,69,0.00,,CLR,0.00,VWS V14.01,2013-02-18 06:39:00,
2013-02-18 00:40:00,33.4,24.3,29.97,SW,215,9.0,19.0,69,0.00,,,0.00,VWS V14.01,2013-02-18 06:40:00,
2013-02-18 00:44:00,33.5,24.4,29.97,SSW,203,7.0,13.0,69,0.00,,CLR,0.00,VWS V14.01,2013-02-18 06:44:00,
2013-02-18 00:49:00,33.7,24.6,29.96,South,184,16.0,16.0,69,0.00,,CLR,0.00,VWS V14.01,2013-02-18 06:49:00,
2013-02-18 00:50:00,33.6,24.5,29.96,West,263,4.0,16.0,69,0.00,,,0.00,VWS V14.01,2013-02-18 06:50:00,
2013-02-18 00:55:00,33.8,24.7,29.96,SW,215,6.0,17.0,69,0.00,,CLR,0.00,VWS V14.01,2013-02-18 06:55:00,
2013-02-18 01:00:00,33.9,24.5,29.96,South,181,5.0,12.0,68,0.00,,CLR,0.00,VWS V14.01,2013-02-18 07:00:00,
2013-02-18 01:05:00,33.9,24.5,29.95,SW,215,6.0,18.0,68,0.00,,CLR,0.00,VWS V14.01,2013-02-18 07:05:00,
2013-02-18 01:10:00,34.0,24.6,29.95,SSW,210,7.0,15.0,68,0.00,,CLR,0.00,VWS V14.01,2013-02-18 07:10:00,
2013-02-18 01:15:00,34.1,24.7,29.95,SSW,194,6.0,17.0,68,0.00,,CLR,0.00,VWS V14.01,2013-02-18 07:15:00,
2013-02-18 01:20:00,34.3,24.9,29.95,SSW,211,5.0,14.0,68,0.00,,CLR,0.00,VWS V14.01,2013-02-18 07:20:00,
2013-02-18 01:25:00,34.4,25.0,29.94,SSW,198,9.0,18.0,68,0.00,,CLR,0.00,VWS V14.01,2013-02-18 07:25:00,
2013-02-18 01:30:00,34.5,24.7,29.94,SSW,205,4.0,17.0,67,0.00,,CLR,0.00,VWS V14.01,2013-02-18 07:30:00,
2013-02-18 01:35:00,34.5,25.0,29.94,South,178,7.0,17.0,68,0.00,,CLR,0.00,VWS V14.01,2013-02-18 07:35:00,
2013-02-18 01:40:00,34.6,24.8,29.93,SSE,151,6.0,19.0,67,0.00,,CLR,0.00,VWS V14.01,2013-02-18 07:40:00,
2013-02-18 01:45:00,34.7,24.9,29.93,South,173,10.0,19.0,67,0.00,,CLR,0.00,VWS V14.01,2013-02-18 07:45:00,
2013-02-18 01:50:00,34.8,25.0,29.93,SSW,194,13.0,24.0,67,0.00,,,0.00,VWS V14.01,2013-02-18 07:50:00,
2013-02-18 01:51:00,34.9,25.1,29.93,SSW,210,11.0,23.0,67,0.00,,CLR,0.00,VWS V14.01,2013-02-18 07:51:00,
2013-02-18 01:56:00,35.1,25.3,29.93,West,278,7.0,23.0,67,0.00,,CLR,0.00,VWS V14.01,2013-02-18 07:56:00,
2013-02-18 02:00:00,35.1,25.3,29.93,SW,225,3.0,23.0,67,0.00,,,0.00,VWS V14.01,2013-02-18 08:00:00,
2013-02-18 02:01:00,35.1,25.3,29.92,SSW,212,10.0,15.0,67,0.00,,CLR,0.00,VWS V14.01,2013-02-18 08:01:00,
2013-02-18 02:06:00,35.2,25.4,29.92,South,180,4.0,21.0,67,0.00,,CLR,0.00,VWS V14.01,2013-02-18 08:06:00,
2013-02-18 02:10:00,35.2,25.4,29.92,SSW,205,7.0,21.0,67,0.00,,,0.00,VWS V14.01,2013-02-18 08:10:00,
2013-02-18 02:11:00,35.2,25.4,29.92,SSW,208,11.0,15.0,67,0.00,,CLR,0.00,VWS V14.01,2013-02-18 08:11:00,
2013-02-18 02:16:00,35.3,25.5,29.92,SSW,203,13.0,22.0,67,0.00,,CLR,0.00,VWS V14.01,2013-02-18 08:16:00,
2013-02-18 02:20:00,35.4,25.2,29.92,South,183,4.0,22.0,66,0.00,,,0.00,VWS V14.01,2013-02-18 08:20:00,
2013-02-18 02:21:00,35.3,25.5,29.92,SW,225,7.0,16.0,67,0.00,,CLR,0.00,VWS V14.01,2013-02-18 08:21:00,
2013-02-18 02:27:00,35.4,25.5,29.91,SSW,201,9.0,17.0,67,0.00,,CLR,0.00,VWS V14.01,2013-02-18 08:27:00,
2013-02-18 02:30:00,35.3,25.5,29.91,SSW,198,4.0,17.0,67,0.00,,,0.00,VWS V14.01,2013-02-18 08:30:00,
2013-02-18 02:32:00,35.3,25.5,29.91,SSW,197,4.0,18.0,67,0.00,,CLR,0.00,VWS V14.01,2013-02-18 08:32:00,
2013-02-18 02:37:00,35.3,25.5,29.91,SSW,204,13.0,18.0,67,0.00,,CLR,0.00,VWS V14.01,2013-02-18 08:37:00,
2013-02-18 02:40:00,35.2,25.4,29.90,SSW,210,8.0,18.0,67,0.00,,,0.00,VWS V14.01,2013-02-18 08:40:00,
2013-02-18 02:42:00,35.1,25.3,29.90,WSW,257,4.0,14.0,67,0.00,,CLR,0.00,VWS V14.01,2013-02-18 08:42:00,
2013-02-18 02:47:00,35.1,25.6,29.90,South,179,6.0,15.0,68,0.00,,CLR,0.00,VWS V14.01,2013-02-18 08:47:00,
2013-02-18 02:50:00,35.1,25.6,29.90,South,188,12.0,15.0,68,0.00,,,0.00,VWS V14.01,2013-02-18 08:50:00,
2013-02-18 02:52:00,35.1,25.6,29.90,SSW,212,5.0,16.0,68,0.00,,CLR,0.00,VWS V14.01,2013-02-18 08:52:00,
2013-02-18 02:57:00,35.2,25.7,29.89,SW,219,11.0,18.0,68,0.00,,CLR,0.00,VWS V14.01,2013-02-18 08:57:00,
2013-02-18 03:00:00,35.2,25.7,29.89,SSW,195,6.0,18.0,68,0.00,,,0.00,VWS V14.01,2013-02-18 09:00:00,
2013-02-18 03:02:00,35.3,25.8,29.89,WSW,250,4.0,14.0,68,0.00,,CLR,0.00,VWS V14.01,2013-02-18 09:02:00,
2013-02-18 03:07:00,35.3,25.8,29.89,SE,135,6.0,17.0,68,0.00,,CLR,0.00,VWS V14.01,2013-02-18 09:07:00,
2013-02-18 03:10:00,35.2,25.7,29.89,WSW,255,6.0,17.0,68,0.00,,,0.00,VWS V14.01,2013-02-18 09:10:00,
2013-02-18 03:13:00,35.3,25.8,29.88,South,176,7.0,17.0,68,0.00,,CLR,0.00,VWS V14.01,2013-02-18 09:13:00,
2013-02-18 03:18:00,35.2,25.7,29.88,SSW,193,10.0,22.0,68,0.00,,CLR,0.00,VWS V14.01,2013-02-18 09:18:00,
2013-02-18 03:20:00,35.2,25.7,29.88,SSW,198,3.0,22.0,68,0.00,,,0.00,VWS V14.01,2013-02-18 09:20:00,
2013-02-18 03:23:00,35.1,26.0,29.88,SW,219,4.0,12.0,69,0.00,,CLR,0.00,VWS V14.01,2013-02-18 09:23:00,
2013-02-18 03:28:00,34.9,25.8,29.88,SSW,201,14.0,14.0,69,0.00,,CLR,0.00,VWS V14.01,2013-02-18 09:28:00,
2013-02-18 03:30:00,34.9,25.8,29.88,SSW,211,7.0,19.0,69,0.00,,,0.00,VWS V14.01,2013-02-18 09:30:00,
2013-02-18 03:33:00,34.9,25.8,29.87,SSE,165,3.0,16.0,69,0.00,,CLR,0.00,VWS V14.01,2013-02-18 09:33:00,
2013-02-18 03:38:00,34.9,26.1,29.87,SSW,208,6.0,16.0,70,0.00,,CLR,0.00,VWS V14.01,2013-02-18 09:38:00,
2013-02-18 03:40:00,34.9,26.1,29.87,South,191,8.0,16.0,70,0.00,,,0.00,VWS V14.01,2013-02-18 09:40:00,
2013-02-18 03:43:00,34.9,26.1,29.87,South,175,13.0,16.0,70,0.00,,CLR,0.00,VWS V14.01,2013-02-18 09:43:00,
2013-02-18 03:48:00,34.9,26.1,29.86,SSE,167,18.0,19.0,70,0.00,,CLR,0.00,VWS V14.01,2013-02-18 09:48:00,
2013-02-18 03:50:00,34.9,26.1,29.86,SSW,194,16.0,19.0,70,0.00,,,0.00,VWS V14.01,2013-02-18 09:50:00,
2013-02-18 03:54:00,34.9,26.1,29.86,South,187,13.0,18.0,70,0.00,,CLR,0.00,VWS V14.01,2013-02-18 09:54:00,
2013-02-18 03:59:00,34.8,26.0,29.86,SW,218,6.0,20.0,70,0.00,,CLR,0.00,VWS V14.01,2013-02-18 09:59:00,
2013-02-18 04:00:00,34.8,26.0,29.86,SW,218,6.0,20.0,70,0.00,,,0.00,VWS V14.01,2013-02-18 10:00:00,
2013-02-18 04:04:00,34.8,26.4,29.86,South,180,4.0,18.0,71,0.00,,CLR,0.00,VWS V14.01,2013-02-18 10:04:00,
2013-02-18 04:09:00,34.8,26.4,29.85,SSW,210,6.0,8.0,71,0.00,,CLR,0.00,VWS V14.01,2013-02-18 10:09:00,
2013-02-18 04:10:00,34.8,26.4,29.85,South,191,6.0,18.0,71,0.00,,,0.00,VWS V14.01,2013-02-18 10:10:00,
2013-02-18 04:14:00,34.7,26.3,29.85,SSW,197,5.0,13.0,71,0.00,,CLR,0.00,VWS V14.01,2013-02-18 10:14:00,
2013-02-18 04:19:00,34.7,26.3,29.85,South,189,11.0,14.0,71,0.00,,CLR,0.00,VWS V14.01,2013-02-18 10:19:00,
2013-02-18 04:20:00,34.7,26.3,29.85,SW,224,4.0,18.0,71,0.00,,,0.00,VWS V14.01,2013-02-18 10:20:00,
2013-02-18 04:24:00,34.7,26.3,29.85,WSW,238,4.0,19.0,71,0.00,,CLR,0.00,VWS V14.01,2013-02-18 10:24:00,
2013-02-18 04:29:00,34.7,26.6,29.85,SW,226,8.0,9.0,72,0.00,,CLR,0.00,VWS V14.01,2013-02-18 10:29:00,
2013-02-18 04:30:00,34.7,26.6,29.85,South,169,5.0,19.0,72,0.00,,,0.00,VWS V14.01,2013-02-18 10:30:00,
2013-02-18 04:34:00,34.7,26.6,29.85,WSW,239,7.0,16.0,72,0.00,,CLR,0.00,VWS V14.01,2013-02-18 10:34:00,
2013-02-18 04:39:00,34.6,26.5,29.85,SSW,195,8.0,18.0,72,0.00,,CLR,0.00,VWS V14.01,2013-02-18 10:39:00,
2013-02-18 04:40:00,34.7,26.6,29.85,SSE,158,13.0,18.0,72,0.00,,,0.00,VWS V14.01,2013-02-18 10:40:00,
2013-02-18 04:45:00,34.6,26.5,29.85,SW,235,8.0,18.0,72,0.00,,CLR,0.00,VWS V14.01,2013-02-18 10:45:00,
2013-02-18 04:50:00,34.6,26.9,29.84,WSW,243,2.0,10.0,73,0.00,,CLR,0.00,VWS V14.01,2013-02-18 10:50:00,
2013-02-18 04:55:00,34.6,26.9,29.84,South,188,7.0,16.0,73,0.00,,CLR,0.00,VWS V14.01,2013-02-18 10:55:00,
2013-02-18 05:00:00,34.6,26.9,29.84,South,177,12.0,13.0,73,0.00,,CLR,0.00,VWS V14.01,2013-02-18 11:00:00,
2013-02-18 05:05:00,34.7,27.0,29.84,South,184,7.0,16.0,73,0.00,,CLR,0.00,VWS V14.01,2013-02-18 11:05:00,
2013-02-18 05:10:00,34.7,27.0,29.84,SW,219,7.0,11.0,73,0.00,,CLR,0.00,VWS V14.01,2013-02-18 11:10:00,
2013-02-18 05:15:00,34.5,27.1,29.83,SSE,160,8.0,11.0,74,0.00,,CLR,0.00,VWS V14.01,2013-02-18 11:15:00,
2013-02-18 05:20:00,34.5,27.1,29.83,SSW,205,6.0,13.0,74,0.00,,,0.00,VWS V14.01,2013-02-18 11:20:00,
2013-02-18 05:21:00,34.6,27.2,29.83,SSE,157,10.0,14.0,74,0.00,,CLR,0.00,VWS V14.01,2013-02-18 11:21:00,
2013-02-18 05:26:00,34.7,27.3,29.83,SSW,198,5.0,15.0,74,0.00,,CLR,0.00,VWS V14.01,2013-02-18 11:26:00,
2013-02-18 05:30:00,34.7,27.3,29.83,South,172,5.0,15.0,74,0.00,,,0.00,VWS V14.01,2013-02-18 11:30:00,
2013-02-18 05:31:00,34.8,27.7,29.83,SW,214,7.0,19.0,75,0.00,,CLR,0.00,VWS V14.01,2013-02-18 11:31:00,
2013-02-18 05:36:00,34.9,27.5,29.83,SSE,150,7.0,19.0,74,0.00,,CLR,0.00,VWS V14.01,2013-02-18 11:36:00,
2013-02-18 05:40:00,34.9,27.5,29.83,SSW,203,11.0,19.0,74,0.00,,,0.00,VWS V14.01,2013-02-18 11:40:00,
2013-02-18 05:41:00,34.9,27.5,29.83,South,179,7.0,13.0,74,0.00,,CLR,0.00,VWS V14.01,2013-02-18 11:41:00,
2013-02-18 05:46:00,34.8,27.7,29.83,SSW,208,14.0,15.0,75,0.00,,CLR,0.00,VWS V14.01,2013-02-18 11:46:00,
2013-02-18 05:50:00,34.9,27.8,29.82,SW,219,2.0,15.0,75,0.00,,,0.00,VWS V14.01,2013-02-18 11:50:00,
2013-02-18 05:51:00,35.0,27.9,29.82,South,169,7.0,18.0,75,0.00,,CLR,0.00,VWS V14.01,2013-02-18 11:51:00,
2013-02-18 05:57:00,35.1,28.0,29.82,SW,236,4.0,18.0,75,0.00,,CLR,0.00,VWS V14.01,2013-02-18 11:57:00,
2013-02-18 06:00:00,35.0,27.9,29.82,SSE,165,12.0,18.0,75,0.00,,,0.00,VWS V14.01,2013-02-18 12:00:00,
2013-02-18 06:02:00,35.1,28.0,29.82,SSW,205,6.0,15.0,75,0.00,,CLR,0.00,VWS V14.01,2013-02-18 12:02:00,
2013-02-18 06:07:00,35.0,27.9,29.82,SSE,160,7.0,15.0,75,0.00,,CLR,0.00,VWS V14.01,2013-02-18 12:07:00,
2013-02-18 06:10:00,35.1,28.3,29.82,SW,221,6.0,15.0,76,0.00,,,0.00,VWS V14.01,2013-02-18 12:10:00,
2013-02-18 06:12:00,35.1,28.3,29.82,SE,136,3.0,12.0,76,0.00,,CLR,0.00,VWS V14.01,2013-02-18 12:12:00,
2013-02-18 06:17:00,35.1,28.3,29.81,SSE,168,14.0,16.0,76,0.00,,CLR,0.00,VWS V14.01,2013-02-18 12:17:00,
2013-02-18 06:20:00,35.1,28.3,29.81,West,271,2.0,16.0,76,0.00,,,0.00,VWS V14.01,2013-02-18 12:20:00,
2013-02-18 06:22:00,35.1,28.3,29.81,SW,218,5.0,13.0,76,0.00,,CLR,0.00,VWS V14.01,2013-02-18 12:22:00,
2013-02-18 06:27:00,35.2,28.4,29.80,South,176,3.0,13.0,76,0.00,,CLR,0.00,VWS V14.01,2013-02-18 12:27:00,
2013-02-18 06:30:00,35.2,28.4,29.80,SSW,204,6.0,13.0,76,0.00,,,0.00,VWS V14.01,2013-02-18 12:30:00,
2013-02-18 06:32:00,35.2,28.7,29.80,SW,224,10.0,14.0,77,0.00,,CLR,0.00,VWS V14.01,2013-02-18 12:32:00,
2013-02-18 06:37:00,35.3,28.8,29.80,SSW,212,8.0,20.0,77,0.00,,CLR,0.00,VWS V14.01,2013-02-18 12:37:00,
2013-02-18 06:40:00,35.4,28.9,29.80,South,188,6.0,20.0,77,0.00,,,0.00,VWS V14.01,2013-02-18 12:40:00,
2013-02-18 06:42:00,35.4,28.9,29.80,SSW,211,7.0,15.0,77,0.00,,CLR,0.00,VWS V14.01,2013-02-18 12:42:00,
2013-02-18 06:47:00,35.5,29.0,29.80,SW,217,6.0,15.0,77,0.00,,CLR,0.00,VWS V14.01,2013-02-18 12:47:00,
2013-02-18 06:50:00,35.5,29.0,29.80,South,179,3.0,15.0,77,0.00,,,0.00,VWS V14.01,2013-02-18 12:50:00,
2013-02-18 06:52:00,35.5,29.0,29.80,SSE,150,7.0,14.0,77,0.00,,CLR,0.00,VWS V14.01,2013-02-18 12:52:00,
2013-02-18 06:58:00,35.6,29.4,29.80,South,190,11.0,15.0,78,0.00,,CLR,0.00,VWS V14.01,2013-02-18 12:58:00,
2013-02-18 07:00:00,35.6,29.4,29.80,SW,214,8.0,15.0,78,0.00,,,0.00,VWS V14.01,2013-02-18 13:00:00,
2013-02-18 07:03:00,35.7,29.5,29.80,SW,229,4.0,17.0,78,0.00,,CLR,0.00,VWS V14.01,2013-02-18 13:03:00,
2013-02-18 07:08:00,35.7,29.5,29.80,SSW,207,12.0,17.0,78,0.00,,CLR,0.00,VWS V14.01,2013-02-18 13:08:00,
2013-02-18 07:10:00,35.7,29.5,29.80,SSW,205,9.0,17.0,78,0.00,,,0.00,VWS V14.01,2013-02-18 13:10:00,
2013-02-18 07:13:00,35.8,29.6,29.79,SSW,193,5.0,15.0,78,0.00,,CLR,0.00,VWS V14.01,2013-02-18 13:13:00,
2013-02-18 07:18:00,35.9,29.7,29.79,SW,221,6.0,15.0,78,0.00,,CLR,0.00,VWS V14.01,2013-02-18 13:18:00,
2013-02-18 07:20:00,35.9,29.7,29.79,SSW,197,9.0,15.0,78,0.00,,,0.00,VWS V14.01,2013-02-18 13:20:00,
2013-02-18 07:23:00,36.0,29.8,29.79,SW,231,6.0,14.0,78,0.00,,CLR,0.00,VWS V14.01,2013-02-18 13:23:00,
2013-02-18 07:28:00,36.3,30.1,29.79,WNW,284,5.0,16.0,78,0.00,,CLR,0.00,VWS V14.01,2013-02-18 13:28:00,
2013-02-18 07:30:00,36.3,30.1,29.79,SSW,195,10.0,16.0,78,0.00,,,0.00,VWS V14.01,2013-02-18 13:30:00,
2013-02-18 07:33:00,36.4,30.2,29.79,SW,236,4.0,13.0,78,0.00,,CLR,0.00,VWS V14.01,2013-02-18 13:33:00,
2013-02-18 07:38:00,36.6,30.4,29.79,South,184,13.0,16.0,78,0.00,,CLR,0.00,VWS V14.01,2013-02-18 13:38:00,
2013-02-18 07:40:00,36.7,30.5,29.78,WSW,252,5.0,16.0,78,0.00,,,0.00,VWS V14.01,2013-02-18 13:40:00,
2013-02-18 07:43:00,36.8,30.6,29.78,SW,229,5.0,15.0,78,0.00,,CLR,0.00,VWS V14.01,2013-02-18 13:43:00,
2013-02-18 07:48:00,37.1,30.9,29.78,WSW,241,8.0,15.0,78,0.00,,CLR,0.00,VWS V14.01,2013-02-18 13:48:00,
2013-02-18 07:50:00,37.1,30.9,29.78,South,174,3.0,15.0,78,0.00,,,0.00,VWS V14.01,2013-02-18 13:50:00,
2013-02-18 07:53:00,37.3,31.1,29.78,WSW,238,7.0,15.0,78,0.00,,CLR,0.00,VWS V14.01,2013-02-18 13:53:00,
2013-02-18 07:58:00,37.5,31.3,29.78,SW,236,2.0,17.0,78,0.00,,CLR,0.00,VWS V14.01,2013-02-18 13:58:00,
2013-02-18 08:00:00,37.5,31.3,29.78,South,183,1.0,17.0,78,0.00,,,0.00,VWS V14.01,2013-02-18 14:00:00,
2013-02-18 08:04:00,37.8,31.6,29.78,SSW,211,6.0,15.0,78,0.00,,CLR,0.00,VWS V14.01,2013-02-18 14:04:00,
2013-02-18 08:09:00,38.0,31.8,29.78,SW,236,5.0,15.0,78,0.00,,CLR,0.00,VWS V14.01,2013-02-18 14:09:00,
2013-02-18 08:10:00,38.0,31.8,29.78,SW,236,5.0,15.0,78,0.00,,,0.00,VWS V14.01,2013-02-18 14:10:00,
2013-02-18 08:14:00,38.4,32.2,29.78,SE,146,3.0,15.0,78,0.00,,CLR,0.00,VWS V14.01,2013-02-18 14:14:00,
2013-02-18 08:19:00,38.9,32.6,29.77,SSW,204,5.0,8.0,78,0.00,,CLR,0.00,VWS V14.01,2013-02-18 14:19:00,
2013-02-18 08:20:00,38.9,32.6,29.77,SW,219,5.0,15.0,78,0.00,,,0.00,VWS V14.01,2013-02-18 14:20:00,
2013-02-18 08:24:00,39.6,33.3,29.77,SW,218,12.0,18.0,78,0.00,,CLR,0.00,VWS V14.01,2013-02-18 14:24:00,
2013-02-18 08:29:00,40.2,33.6,29.77,SSE,160,11.0,11.0,77,0.00,,CLR,0.00,VWS V14.01,2013-02-18 14:29:00,
2013-02-18 08:30:00,40.2,33.6,29.77,SSE,159,8.0,18.0,77,0.00,,,0.00,VWS V14.01,2013-02-18 14:30:00,
2013-02-18 08:34:00,40.9,34.3,29.77,West,260,13.0,16.0,77,0.00,,CLR,0.00,VWS V14.01,2013-02-18 14:34:00,
2013-02-18 08:39:00,41.4,34.4,29.77,SSW,210,3.0,12.0,76,0.00,,CLR,0.00,VWS V14.01,2013-02-18 14:39:00,
2013-02-18 08:40:00,41.4,34.4,29.77,SSE,148,10.0,16.0,76,0.00,,,0.00,VWS V14.01,2013-02-18 14:40:00,
2013-02-18 08:44:00,41.9,34.9,29.77,WSW,241,4.0,19.0,76,0.00,,CLR,0.00,VWS V14.01,2013-02-18 14:44:00,
2013-02-18 08:49:00,42.4,35.4,29.77,WSW,253,5.0,12.0,76,0.00,,CLR,0.00,VWS V14.01,2013-02-18 14:49:00,
2013-02-18 08:50:00,42.4,35.4,29.77,SSE,151,12.0,19.0,76,0.00,,,0.00,VWS V14.01,2013-02-18 14:50:00,
2013-02-18 08:54:00,42.7,35.3,29.77,SSW,200,9.0,16.0,75,0.00,,CLR,0.00,VWS V14.01,2013-02-18 14:54:00,
2013-02-18 08:59:00,43.2,35.8,29.76,SW,225,7.0,11.0,75,0.00,,CLR,0.00,VWS V14.01,2013-02-18 14:59:00,
2013-02-18 09:00:00,43.1,35.7,29.76,SSW,212,11.0,16.0,75,0.00,,,0.00,VWS V14.01,2013-02-18 15:00:00,
2013-02-18 09:04:00,43.6,36.2,29.76,SSW,195,11.0,18.0,75,0.00,,CLR,0.00,VWS V14.01,2013-02-18 15:04:00,
2013-02-18 09:10:00,44.1,36.7,29.76,West,272,8.0,14.0,75,0.00,,CLR,0.00,VWS V14.01,2013-02-18 15:10:00,
2013-02-18 09:15:00,44.5,36.7,29.75,SW,217,7.0,15.0,74,0.00,,CLR,0.00,VWS V14.01,2013-02-18 15:15:00,
2013-02-18 09:20:00,44.9,37.1,29.75,SE,136,2.0,10.0,74,0.00,,CLR,0.00,VWS V14.01,2013-02-18 15:20:00,
2013-02-18 09:25:00,45.3,37.2,29.75,WSW,253,4.0,16.0,73,0.00,,CLR,0.00,VWS V14.01,2013-02-18 15:25:00,
2013-02-18 09:30:00,45.6,37.5,29.75,SSW,201,8.0,12.0,73,0.00,,CLR,0.00,VWS V14.01,2013-02-18 15:30:00,
2013-02-18 09:35:00,46.1,37.9,29.75,WSW,255,2.0,15.0,73,0.00,,CLR,0.00,VWS V14.01,2013-02-18 15:35:00,
2013-02-18 09:40:00,46.7,38.2,29.75,West,263,5.0,9.0,72,0.00,,CLR,0.00,VWS V14.01,2013-02-18 15:40:00,
2013-02-18 09:45:00,47.1,38.5,29.75,WNW,303,3.0,14.0,72,0.00,,CLR,0.00,VWS V14.01,2013-02-18 15:45:00,
2013-02-18 09:50:00,47.7,38.8,29.75,SE,146,8.0,9.0,71,0.00,,CLR,0.00,VWS V14.01,2013-02-18 15:50:00,
2013-02-18 09:55:00,48.0,39.1,29.75,SW,231,7.0,15.0,71,0.00,,CLR,0.00,VWS V14.01,2013-02-18 15:55:00,
2013-02-18 10:00:00,48.4,39.1,29.75,West,278,3.0,12.0,70,0.00,,CLR,0.00,VWS V14.01,2013-02-18 16:00:00,
2013-02-18 10:06:00,49.0,39.7,29.75,SSE,158,4.0,12.0,70,0.00,,CLR,0.00,VWS V14.01,2013-02-18 16:06:00,
2013-02-18 10:10:00,49.4,39.7,29.75,West,278,6.0,12.0,69,0.00,,,0.00,VWS V14.01,2013-02-18 16:10:00,
2013-02-18 10:11:00,49.6,39.9,29.75,South,188,5.0,16.0,69,0.00,,CLR,0.00,VWS V14.01,2013-02-18 16:11:00,
2013-02-18 10:16:00,50.1,40.0,29.75,West,281,7.0,18.0,68,0.00,,CLR,0.00,VWS V14.01,2013-02-18 16:16:00,
2013-02-18 10:20:00,50.2,40.1,29.75,SW,219,8.0,18.0,68,0.00,,,0.00,VWS V14.01,2013-02-18 16:20:00,
2013-02-18 10:21:00,50.1,40.3,29.74,WSW,250,3.0,17.0,69,0.00,,CLR,0.00,VWS V14.01,2013-02-18 16:21:00,
2013-02-18 10:26:00,50.4,40.6,29.75,West,281,3.0,17.0,69,0.00,,CLR,0.00,VWS V14.01,2013-02-18 16:26:00,
2013-02-18 10:30:00,50.7,40.9,29.74,West,277,5.0,17.0,69,0.00,,,0.00,VWS V14.01,2013-02-18 16:30:00,
2013-02-18 10:31:00,50.8,40.6,29.74,South,188,4.0,15.0,68,0.00,,CLR,0.00,VWS V14.01,2013-02-18 16:31:00,
2013-02-18 10:36:00,51.2,41.0,29.74,SW,236,2.0,22.0,68,0.00,,CLR,0.00,VWS V14.01,2013-02-18 16:36:00,
2013-02-18 10:40:00,51.5,41.3,29.74,West,274,4.0,22.0,68,0.00,,,0.00,VWS V14.01,2013-02-18 16:40:00,
2013-02-18 10:41:00,51.5,40.9,29.74,SW,214,6.0,12.0,67,0.00,,CLR,0.00,VWS V14.01,2013-02-18 16:41:00,
2013-02-18 10:47:00,51.8,41.6,29.74,West,276,8.0,13.0,68,0.00,,CLR,0.00,VWS V14.01,2013-02-18 16:47:00,
2013-02-18 10:50:00,51.9,41.3,29.74,WNW,288,6.0,15.0,67,0.00,,,0.00,VWS V14.01,2013-02-18 16:50:00,
2013-02-18 10:52:00,51.9,41.3,29.73,SSE,150,7.0,15.0,67,0.00,,CLR,0.00,VWS V14.01,2013-02-18 16:52:00,
2013-02-18 10:57:00,52.2,41.6,29.73,South,186,13.0,21.0,67,0.00,,CLR,0.00,VWS V14.01,2013-02-18 16:57:00,
2013-02-18 11:00:00,52.3,41.7,29.73,WSW,250,6.0,21.0,67,0.00,,,0.00,VWS V14.01,2013-02-18 17:00:00,
2013-02-18 11:04:00,52.4,41.8,29.73,SSW,203,4.0,17.0,67,0.00,,CLR,0.00,VWS V14.01,2013-02-18 17:04:00,
2013-02-18 11:09:00,52.9,42.3,29.72,WSW,241,8.0,10.0,67,0.00,,CLR,0.00,VWS V14.01,2013-02-18 17:09:00,
2013-02-18 11:10:00,52.8,42.2,29.72,WSW,240,10.0,17.0,67,0.00,,,0.00,VWS V14.01,2013-02-18 17:10:00,
2013-02-18 11:14:00,52.7,42.1,29.72,West,263,10.0,19.0,67,0.00,,CLR,0.00,VWS V14.01,2013-02-18 17:14:00,
2013-02-18 11:20:00,52.5,41.9,29.72,WSW,249,9.0,18.0,67,0.00,,CLR,0.00,VWS V14.01,2013-02-18 17:20:00,
2013-02-18 11:25:00,52.6,42.3,29.72,South,184,18.0,18.0,68,0.00,,CLR,0.00,VWS V14.01,2013-02-18 17:25:00,
2013-02-18 11:30:00,52.7,42.5,29.71,SSE,153,7.0,15.0,68,0.00,,CLR,0.00,VWS V14.01,2013-02-18 17:30:00,
2013-02-18 11:35:00,53.1,42.8,29.71,West,276,4.0,16.0,68,0.00,,CLR,0.00,VWS V14.01,2013-02-18 17:35:00,
2013-02-18 11:40:00,52.7,42.5,29.71,SSW,194,7.0,11.0,68,0.00,,CLR,0.00,VWS V14.01,2013-02-18 17:40:00,
2013-02-18 11:46:00,52.6,42.7,29.70,SW,217,5.0,21.0,69,0.00,,CLR,0.00,VWS V14.01,2013-02-18 17:46:00,
2013-02-18 11:50:00,52.6,42.7,29.70,South,190,8.0,21.0,69,0.00,,,0.00,VWS V14.01,2013-02-18 17:50:00,
2013-02-18 11:51:00,52.6,42.7,29.70,WSW,255,7.0,16.0,69,0.00,,CLR,0.00,VWS V14.01,2013-02-18 17:51:00,
2013-02-18 11:56:00,52.7,42.8,29.70,WSW,242,8.0,16.0,69,0.00,,CLR,0.00,VWS V14.01,2013-02-18 17:56:00,
2013-02-18 12:00:00,52.8,42.9,29.70,WSW,248,5.0,16.0,69,0.00,,,0.00,VWS V14.01,2013-02-18 18:00:00,
2013-02-18 12:01:00,52.8,42.9,29.70,SW,222,5.0,16.0,69,0.00,,CLR,0.00,VWS V14.01,2013-02-18 18:01:00,
2013-02-18 12:06:00,52.9,43.0,29.70,SSW,212,5.0,16.0,69,0.00,,CLR,0.00,VWS V14.01,2013-02-18 18:06:00,
2013-02-18 12:10:00,53.0,43.5,29.70,WSW,249,10.0,16.0,70,0.00,,,0.00,VWS V14.01,2013-02-18 18:10:00,
2013-02-18 12:12:00,52.9,43.0,29.70,SW,228,4.0,12.0,69,0.00,,CLR,0.00,VWS V14.01,2013-02-18 18:12:00,
2013-02-18 12:17:00,52.8,43.3,29.69,SW,227,4.0,12.0,70,0.00,,CLR,0.00,VWS V14.01,2013-02-18 18:17:00,
2013-02-18 12:20:00,52.8,43.3,29.69,SSW,195,3.0,12.0,70,0.00,,,0.00,VWS V14.01,2013-02-18 18:20:00,
2013-02-18 12:22:00,52.7,43.2,29.69,SSW,193,9.0,12.0,70,0.00,,SCT110,0.00,VWS V14.01,2013-02-18 18:22:00,
2013-02-18 12:27:00,52.5,43.4,29.69,SSE,160,4.0,12.0,71,0.00,,SCT110,0.00,VWS V14.01,2013-02-18 18:27:00,
2013-02-18 12:30:00,52.5,43.4,29.68,SW,229,2.0,12.0,71,0.00,,,0.00,VWS V14.01,2013-02-18 18:30:00,
2013-02-18 12:32:00,52.4,43.3,29.68,SW,236,3.0,10.0,71,0.00,,SCT110,0.00,VWS V14.01,2013-02-18 18:32:00,
2013-02-18 12:38:00,52.3,43.5,29.68,SW,229,1.0,13.0,72,0.00,,SCT110,0.00,VWS V14.01,2013-02-18 18:38:00,
2013-02-18 12:40:00,52.3,43.5,29.68,SSE,163,4.0,13.0,72,0.00,,,0.00,VWS V14.01,2013-02-18 18:40:00,
2013-02-18 12:43:00,52.4,43.7,29.68,SSW,194,3.0,9.0,72,0.00,,SCT050,0.00,VWS V14.01,2013-02-18 18:43:00,
2013-02-18 12:48:00,52.4,43.7,29.67,SW,226,2.0,9.0,72,0.00,,SCT050,0.00,VWS V14.01,2013-02-18 18:48:00,
2013-02-18 12:50:00,52.4,43.7,29.67,SE,138,3.0,9.0,72,0.00,,,0.00,VWS V14.01,2013-02-18 18:50:00,
2013-02-18 12:53:00,52.4,44.0,29.67,SSE,167,4.0,7.0,73,0.00,,SCT050,0.00,VWS V14.01,2013-02-18 18:53:00,
2013-02-18 12:58:00,52.5,44.1,29.66,SW,221,3.0,9.0,73,0.00,,SCT050,0.00,VWS V14.01,2013-02-18 18:58:00,
2013-02-18 13:00:00,52.5,44.1,29.66,SSE,165,4.0,9.0,73,0.00,,,0.00,VWS V14.01,2013-02-18 19:00:00,
2013-02-18 13:03:00,52.6,44.2,29.66,SSW,197,5.0,11.0,73,0.00,,BKN038,0.00,VWS V14.01,2013-02-18 19:03:00,
2013-02-18 13:09:00,52.7,44.3,29.66,WSW,245,6.0,11.0,73,0.00,,BKN038,0.00,VWS V14.01,2013-02-18 19:09:00,
2013-02-18 13:10:00,52.7,44.3,29.66,WSW,245,6.0,11.0,73,0.00,,,0.00,VWS V14.01,2013-02-18 19:10:00,
2013-02-18 13:14:00,52.8,44.8,29.66,SW,217,8.0,16.0,74,0.00,,BKN038,0.00,VWS V14.01,2013-02-18 19:14:00,
2013-02-18 13:19:00,53.1,44.7,29.65,SW,214,5.0,6.0,73,0.00,,BKN038,0.00,VWS V14.01,2013-02-18 19:19:00,
2013-02-18 13:20:00,53.1,44.7,29.65,WSW,245,4.0,16.0,73,0.00,,,0.00,VWS V14.01,2013-02-18 19:20:00,
2013-02-18 13:24:00,53.3,45.2,29.65,SSE,152,2.0,19.0,74,0.00,,BKN036,0.00,VWS V14.01,2013-02-18 19:24:00,
2013-02-18 13:29:00,53.2,45.5,29.64,WSW,243,5.0,8.0,75,0.00,,BKN036,0.00,VWS V14.01,2013-02-18 19:29:00,
2013-02-18 13:30:00,53.3,45.2,29.64,SSE,163,3.0,19.0,74,0.00,,,0.00,VWS V14.01,2013-02-18 19:30:00,
2013-02-18 13:34:00,53.2,45.5,29.64,SSW,211,3.0,9.0,75,0.00,,BKN036,0.00,VWS V14.01,2013-02-18 19:34:00,
2013-02-18 13:40:00,53.1,45.4,29.64,SSE,150,5.0,6.0,75,0.00,,-RA,0.00,VWS V14.01,2013-02-18 19:40:00,
2013-02-18 13:45:00,53.1,45.4,29.64,West,262,4.0,12.0,75,0.00,,-RA,0.00,VWS V14.01,2013-02-18 19:45:00,
2013-02-18 13:50:00,53.1,45.4,29.63,SW,233,5.0,10.0,75,0.00,,-RA,0.00,VWS V14.01,2013-02-18 19:50:00,
2013-02-18 13:55:00,53.1,45.4,29.63,South,188,2.0,13.0,75,0.00,,-RA,0.00,VWS V14.01,2013-02-18 19:55:00,
2013-02-18 14:00:00,52.8,46.1,29.63,WNW,283,12.0,12.0,78,0.00,,-RA,0.00,VWS V14.01,2013-02-18 20:00:00,
2013-02-18 14:05:00,52.5,46.2,29.63,SSW,203,6.0,12.0,79,0.00,,-RA,0.00,VWS V14.01,2013-02-18 20:05:00,
2013-02-18 14:10:00,52.2,46.2,29.63,WSW,255,6.0,12.0,80,0.00,,,0.00,VWS V14.01,2013-02-18 20:10:00,
2013-02-18 14:11:00,52.1,46.1,29.63,SSE,160,5.0,8.0,80,0.00,,-RA,0.00,VWS V14.01,2013-02-18 20:11:00,
2013-02-18 14:16:00,52.0,46.4,29.62,SSW,197,3.0,11.0,81,0.00,,-RA,0.00,VWS V14.01,2013-02-18 20:16:00,
2013-02-18 14:20:00,51.9,46.3,29.62,SSW,198,8.0,11.0,81,0.00,,,0.00,VWS V14.01,2013-02-18 20:20:00,
2013-02-18 14:21:00,51.8,46.2,29.62,SW,221,5.0,9.0,81,0.00,,RA,0.00,VWS V14.01,2013-02-18 20:21:00,
2013-02-18 14:26:00,51.7,46.4,29.61,SSW,203,3.0,15.0,82,0.00,,RA,0.00,VWS V14.01,2013-02-18 20:26:00,
2013-02-18 14:30:00,51.6,46.3,29.61,South,176,7.0,15.0,82,0.00,,,0.00,VWS V14.01,2013-02-18 20:30:00,
2013-02-18 14:31:00,51.6,46.6,29.61,SSE,166,3.0,11.0,83,0.00,,RA,0.00,VWS V14.01,2013-02-18 20:31:00,
2013-02-18 14:37:00,51.6,46.3,29.61,ESE,103,2.0,11.0,82,0.00,,RA,0.00,VWS V14.01,2013-02-18 20:37:00,
2013-02-18 14:40:00,51.7,46.4,29.60,WSW,243,7.0,13.0,82,0.00,,,0.00,VWS V14.01,2013-02-18 20:40:00,
2013-02-18 14:42:00,51.8,46.5,29.60,SW,218,3.0,10.0,82,0.00,,OVC037,0.00,VWS V14.01,2013-02-18 20:42:00,
2013-02-18 14:47:00,52.0,46.7,29.60,WSW,239,3.0,11.0,82,0.00,,OVC037,0.00,VWS V14.01,2013-02-18 20:47:00,
2013-02-18 14:50:00,52.1,46.8,29.60,WSW,243,6.0,12.0,82,0.00,,,0.00,VWS V14.01,2013-02-18 20:50:00,
2013-02-18 14:52:00,52.2,46.5,29.59,SW,223,2.0,11.0,81,0.00,,OVC037,0.00,VWS V14.01,2013-02-18 20:52:00,
2013-02-18 14:57:00,52.4,46.8,29.59,SSE,166,6.0,13.0,81,0.00,,OVC037,0.00,VWS V14.01,2013-02-18 20:57:00,
2013-02-18 15:00:00,52.5,46.8,29.59,West,271,3.0,13.0,81,0.00,,,0.00,VWS V14.01,2013-02-18 21:00:00,
2013-02-18 15:03:00,52.6,46.6,29.59,WSW,249,7.0,14.0,80,0.00,,-RA,0.00,VWS V14.01,2013-02-18 21:03:00,
2013-02-18 15:08:00,52.7,46.7,29.58,WSW,248,3.0,14.0,80,0.00,,-RA,0.00,VWS V14.01,2013-02-18 21:08:00,
2013-02-18 15:10:00,52.7,46.7,29.58,SSE,162,6.0,14.0,80,0.00,,,0.00,VWS V14.01,2013-02-18 21:10:00,
2013-02-18 15:13:00,52.8,46.8,29.58,SSW,193,14.0,14.0,80,0.00,,-RA,0.00,VWS V14.01,2013-02-18 21:13:00,
2013-02-18 15:18:00,52.9,46.9,29.58,SW,229,10.0,14.0,80,0.00,,-RA,0.00,VWS V14.01,2013-02-18 21:18:00,
2013-02-18 15:20:00,52.9,46.9,29.58,SSE,166,9.0,14.0,80,0.00,,,0.00,VWS V14.01,2013-02-18 21:20:00,
2013-02-18 15:23:00,53.0,47.0,29.58,West,270,2.0,14.0,80,0.00,,BKN047,0.00,VWS V14.01,2013-02-18 21:23:00,
2013-02-18 15:28:00,53.0,47.0,29.57,SSE,153,5.0,15.0,80,0.00,,BKN047,0.00,VWS V14.01,2013-02-18 21:28:00,
2013-02-18 15:30:00,53.0,47.0,29.57,South,184,8.0,15.0,80,0.00,,,0.00,VWS V14.01,2013-02-18 21:30:00,
2013-02-18 15:33:00,53.0,47.3,29.57,SW,225,5.0,25.0,81,0.00,,BKN047,0.00,VWS V14.01,2013-02-18 21:33:00,
2013-02-18 15:39:00,52.3,47.3,29.57,WSW,248,5.0,25.0,83,0.01,,BKN047,0.01,VWS V14.01,2013-02-18 21:39:00,
2013-02-18 15:40:00,52.3,47.3,29.57,WSW,248,5.0,25.0,83,0.01,,,0.01,VWS V14.01,2013-02-18 21:40:00,
2013-02-18 15:44:00,51.6,47.2,29.57,SSE,149,2.0,17.0,85,0.01,,BKN046,0.01,VWS V14.01,2013-02-18 21:44:00,
2013-02-18 15:49:00,51.0,47.0,29.56,SSW,208,13.0,18.0,86,0.01,,BKN046,0.01,VWS V14.01,2013-02-18 21:49:00,
2013-02-18 15:50:00,51.0,47.0,29.56,SE,129,18.0,23.0,86,0.01,,,0.01,VWS V14.01,2013-02-18 21:50:00,
2013-02-18 15:54:00,50.6,46.9,29.56,WSW,243,7.0,18.0,87,0.01,,BKN046,0.01,VWS V14.01,2013-02-18 21:54:00,
2013-02-18 15:59:00,50.3,46.9,29.56,SSW,197,14.0,20.0,88,0.01,,BKN046,0.01,VWS V14.01,2013-02-18 21:59:00,
2013-02-18 16:00:00,50.3,46.9,29.56,SSW,205,9.0,19.0,88,0.01,,,0.01,VWS V14.01,2013-02-18 22:00:00,
2013-02-18 16:04:00,50.0,46.6,29.55,WSW,245,7.0,20.0,88,0.02,,BKN110,0.02,VWS V14.01,2013-02-18 22:04:00,
2013-02-18 16:10:00,49.7,46.6,29.55,SW,218,3.0,18.0,89,0.02,,BKN110,0.02,VWS V14.01,2013-02-18 22:10:00,
2013-02-18 16:15:00,49.7,46.3,29.55,SW,215,6.0,19.0,88,0.02,,BKN110,0.02,VWS V14.01,2013-02-18 22:15:00,
2013-02-18 16:20:00,49.7,46.3,29.54,South,184,10.0,10.0,88,0.02,,-RA,0.02,VWS V14.01,2013-02-18 22:20:00,
2013-02-18 16:25:00,49.7,46.3,29.54,SW,215,13.0,17.0,88,0.02,,-RA,0.02,VWS V14.01,2013-02-18 22:25:00,
2013-02-18 16:30:00,49.5,46.1,29.53,SSE,152,15.0,16.0,88,0.02,,-RA,0.02,VWS V14.01,2013-02-18 22:30:00,
2013-02-18 16:35:00,49.3,46.2,29.53,SW,223,12.0,18.0,89,0.02,,-RA,0.02,VWS V14.01,2013-02-18 22:35:00,
2013-02-18 16:40:00,49.3,45.9,29.53,SW,215,13.0,19.0,88,0.02,,,0.02,VWS V14.01,2013-02-18 22:40:00,
2013-02-18 16:41:00,49.3,45.9,29.53,WSW,250,6.0,18.0,88,0.01,,-RA,0.02,VWS V14.01,2013-02-18 22:41:00,
2013-02-18 16:46:00,49.1,46.0,29.52,SSE,149,15.0,22.0,89,0.01,,-RA,0.02,VWS V14.01,2013-02-18 22:46:00,
2013-02-18 16:50:00,49.1,46.0,29.52,South,175,10.0,22.0,89,0.01,,,0.02,VWS V14.01,2013-02-18 22:50:00,
2013-02-18 16:51:00,49.1,46.0,29.52,West,259,8.0,17.0,89,0.01,,-RA,0.02,VWS V14.01,2013-02-18 22:51:00,
2013-02-18 16:56:00,49.1,46.0,29.51,West,269,5.0,22.0,89,0.01,,-RA,0.02,VWS V14.01,2013-02-18 22:56:00,
2013-02-18 17:00:00,49.1,46.0,29.51,SSW,193,9.0,25.0,89,0.01,,,0.02,VWS V14.01,2013-02-18 23:00:00,
2013-02-18 17:01:00,49.0,46.2,29.51,SSW,198,6.0,19.0,90,0.01,,-RA,0.02,VWS V14.01,2013-02-18 23:01:00,
2013-02-18 17:06:00,48.7,45.9,29.51,WSW,240,9.0,19.0,90,0.01,,-RA,0.02,VWS V14.01,2013-02-18 23:06:00,
2013-02-18 17:10:00,48.6,46.1,29.50,South,176,11.0,22.0,91,0.01,,,0.02,VWS V14.01,2013-02-18 23:10:00,
2013-02-18 17:12:00,48.6,46.1,29.50,SSE,165,9.0,17.0,91,0.00,,-RA,0.02,VWS V14.01,2013-02-18 23:12:00,
2013-02-18 17:17:00,48.4,45.9,29.50,SSW,194,15.0,28.0,91,0.00,,-RA,0.02,VWS V14.01,2013-02-18 23:17:00,
2013-02-18 17:20:00,48.4,45.9,29.50,South,183,13.0,28.0,91,0.00,,,0.02,VWS V14.01,2013-02-18 23:20:00,
2013-02-18 17:22:00,48.4,45.9,29.50,SSW,198,7.0,24.0,91,0.00,,SCT120,0.02,VWS V14.01,2013-02-18 23:22:00,
2013-02-18 17:28:00,48.3,46.1,29.50,West,262,9.0,24.0,92,0.02,,SCT120,0.04,VWS V14.01,2013-02-18 23:28:00,
2013-02-18 17:30:00,48.3,46.1,29.50,SSW,193,6.0,24.0,92,0.02,,,0.04,VWS V14.01,2013-02-18 23:30:00,
2013-02-18 17:33:00,48.1,45.9,29.50,WSW,256,6.0,16.0,92,0.03,,SCT120,0.05,VWS V14.01,2013-02-18 23:33:00,
2013-02-18 17:38:00,48.0,46.1,29.50,SSW,201,15.0,18.0,93,0.03,,SCT120,0.05,VWS V14.01,2013-02-18 23:38:00,
2013-02-18 17:40:00,47.9,46.0,29.50,WSW,250,5.0,21.0,93,0.03,,,0.05,VWS V14.01,2013-02-18 23:40:00,
2013-02-18 17:43:00,47.9,46.0,29.50,SSW,203,12.0,30.0,93,0.04,,SCT014,0.06,VWS V14.01,2013-02-18 23:43:00,
2013-02-18 17:48:00,47.8,45.9,29.49,South,170,7.0,30.0,93,0.05,,SCT014,0.07,VWS V14.01,2013-02-18 23:48:00,
2013-02-18 17:50:00,47.8,45.9,29.49,SSW,210,9.0,30.0,93,0.05,,,0.07,VWS V14.01,2013-02-18 23:50:00,
2013-02-18 17:53:00,47.7,45.8,29.50,WSW,238,13.0,19.0,93,0.05,,SCT014,0.07,VWS V14.01,2013-02-18 23:53:00,
2013-02-18 17:58:00,47.7,45.8,29.49,SSW,207,8.0,26.0,93,0.05,,SCT014,0.07,VWS V14.01,2013-02-18 23:58:00,
2013-02-18 18:00:00,47.7,45.8,29.49,SSW,201,15.0,26.0,93,0.05,,,0.07,VWS V14.01,2013-02-19 00:00:00,
2013-02-18 18:04:00,47.7,45.8,29.50,SSW,210,10.0,22.0,93,0.05,,RA,0.07,VWS V14.01,2013-02-19 00:04:00,
2013-02-18 18:09:00,47.6,45.7,29.50,SSE,166,7.0,22.0,93,0.06,,RA,0.08,VWS V14.01,2013-02-19 00:09:00,
2013-02-18 18:10:00,47.6,45.7,29.50,SSE,166,7.0,22.0,93,0.06,,,0.08,VWS V14.01,2013-02-19 00:10:00,
2013-02-18 18:14:00,47.5,45.9,29.50,SSW,203,5.0,20.0,94,0.07,,RA,0.09,VWS V14.01,2013-02-19 00:14:00,
2013-02-18 18:19:00,47.6,46.0,29.53,WNW,291,5.0,5.0,94,0.10,,RA,0.12,VWS V14.01,2013-02-19 00:19:00,
2013-02-18 18:20:00,47.6,46.0,29.53,WNW,285,4.0,23.0,94,0.10,,,0.12,VWS V14.01,2013-02-19 00:20:00,
2013-02-18 18:24:00,46.4,43.3,29.55,NNW,341,7.0,13.0,89,0.15,, +RA,0.17,VWS V14.01,2013-02-19 00:24:00,
2013-02-18 18:30:00,43.1,40.1,29.56,North,351,9.0,11.0,89,0.15,, +RA,0.19,VWS V14.01,2013-02-19 00:30:00,
2013-02-18 18:34:00,41.3,38.9,29.56,NNW,327,7.0,12.0,91,0.15,, +RA,0.19,VWS V14.01,2013-02-19 00:34:00,
2013-02-18 18:40:00,40.4,38.3,29.57,WNW,302,6.0,8.0,92,0.15,,RA,0.20,VWS V14.01,2013-02-19 00:40:00,
2013-02-18 18:45:00,39.7,37.8,29.58,West,278,4.0,13.0,93,0.16,,RA,0.21,VWS V14.01,2013-02-19 00:45:00,
2013-02-18 18:50:00,39.3,37.5,29.58,NW,307,7.0,13.0,93,0.16,,,0.21,VWS V14.01,2013-02-19 00:50:00,
2013-02-18 18:51:00,39.1,37.2,29.58,West,276,7.0,8.0,93,0.14,,RA,0.21,VWS V14.01,2013-02-19 00:51:00,
2013-02-18 18:56:00,38.5,36.7,29.58,NW,316,6.0,11.0,93,0.15,,RA,0.22,VWS V14.01,2013-02-19 00:56:00,
2013-02-18 19:00:00,38.2,36.4,29.57,NW,315,11.0,11.0,93,0.15,,,0.22,VWS V14.01,2013-02-19 01:00:00,
2013-02-18 19:01:00,37.9,36.1,29.57,NW,322,6.0,13.0,93,0.15,,-RA,0.22,VWS V14.01,2013-02-19 01:01:00,
2013-02-18 19:06:00,37.6,36.0,29.57,NNW,330,4.0,13.0,94,0.15,,-RA,0.22,VWS V14.01,2013-02-19 01:06:00,
2013-02-18 19:10:00,37.4,35.8,29.57,North,352,5.0,13.0,94,0.15,,,0.22,VWS V14.01,2013-02-19 01:10:00,
2013-02-18 19:11:00,37.2,35.6,29.58,WNW,302,4.0,13.0,94,0.14,,-RA,0.22,VWS V14.01,2013-02-19 01:11:00,
2013-02-18 19:17:00,36.8,35.2,29.59,WNW,283,9.0,13.0,94,0.14,,-RA,0.22,VWS V14.01,2013-02-19 01:17:00,
2013-02-18 19:20:00,36.6,34.8,29.60,NW,316,4.0,20.0,93,0.14,,,0.22,VWS V14.01,2013-02-19 01:20:00,
2013-02-18 19:22:00,36.4,34.8,29.60,NW,307,5.0,10.0,94,0.10,,-RA,0.22,VWS V14.01,2013-02-19 01:22:00,
2013-02-18 19:27:00,35.9,34.1,29.61,North,4,10.0,18.0,93,0.11,,-RA,0.23,VWS V14.01,2013-02-19 01:27:00,
2013-02-18 19:30:00,35.7,33.9,29.60,NW,325,11.0,18.0,93,0.11,,,0.23,VWS V14.01,2013-02-19 01:30:00,
2013-02-18 19:32:00,35.3,33.5,29.61,NW,318,5.0,11.0,93,0.04,,-RA,0.23,VWS V14.01,2013-02-19 01:32:00,
2013-02-18 19:37:00,34.6,32.8,29.61,WNW,293,3.0,12.0,93,0.04,,-RA,0.23,VWS V14.01,2013-02-19 01:37:00,
2013-02-18 19:40:00,34.4,32.6,29.61,NW,316,5.0,12.0,93,0.04,,,0.23,VWS V14.01,2013-02-19 01:40:00,
2013-02-18 19:42:00,34.2,32.7,29.61,WNW,285,8.0,11.0,94,0.03,,,0.23,VWS V14.01,2013-02-19 01:42:00,
2013-02-18 19:47:00,34.1,32.6,29.61,WNW,296,3.0,11.0,94,0.03,,,0.23,VWS V14.01,2013-02-19 01:47:00,
2013-02-18 19:50:00,34.0,32.5,29.61,NW,308,6.0,11.0,94,0.03,,,0.23,VWS V14.01,2013-02-19 01:50:00,
2013-02-18 19:52:00,33.9,32.6,29.61,WNW,301,6.0,11.0,95,0.02,,,0.23,VWS V14.01,2013-02-19 01:52:00,
2013-02-18 19:57:00,33.8,32.5,29.61,WNW,294,5.0,13.0,95,0.02,,,0.23,VWS V14.01,2013-02-19 01:57:00,
2013-02-18 20:00:00,33.8,32.5,29.61,WNW,294,4.0,13.0,95,0.02,,,0.23,VWS V14.01,2013-02-19 02:00:00,
2013-02-18 20:03:00,33.7,32.4,29.61,NW,318,10.0,10.0,95,0.01,,-RA,0.23,VWS V14.01,2013-02-19 02:03:00,
2013-02-18 20:08:00,33.5,32.2,29.61,North,349,6.0,12.0,95,0.01,,-RA,0.23,VWS V14.01,2013-02-19 02:08:00,
2013-02-18 20:10:00,33.5,32.2,29.61,NW,308,7.0,12.0,95,0.01,,,0.23,VWS V14.01,2013-02-19 02:10:00,
2013-02-18 20:13:00,33.4,32.1,29.62,NW,312,5.0,11.0,95,0.01,,-RA,0.23,VWS V14.01,2013-02-19 02:13:00,
2013-02-18 20:18:00,33.3,32.0,29.62,West,276,8.0,12.0,95,0.01,,-RA,0.23,VWS V14.01,2013-02-19 02:18:00,
2013-02-18 20:20:00,33.3,32.0,29.62,NW,308,5.0,12.0,95,0.01,,,0.23,VWS V14.01,2013-02-19 02:20:00,
2013-02-18 20:23:00,33.1,31.8,29.63,WNW,302,4.0,13.0,95,0.01,,,0.23,VWS V14.01,2013-02-19 02:23:00,
2013-02-18 20:28:00,33.0,31.7,29.63,NW,307,7.0,18.0,95,0.02,,,0.24,VWS V14.01,2013-02-19 02:28:00,
2013-02-18 20:30:00,33.0,31.7,29.63,WNW,300,8.0,18.0,95,0.02,,,0.24,VWS V14.01,2013-02-19 02:30:00,
2013-02-18 20:34:00,32.9,31.6,29.64,WNW,291,2.0,13.0,95,0.01,,,0.24,VWS V14.01,2013-02-19 02:34:00,
2013-02-18 20:39:00,32.8,31.5,29.64,NW,321,8.0,13.0,95,0.01,,,0.24,VWS V14.01,2013-02-19 02:39:00,
2013-02-18 20:40:00,32.8,31.5,29.64,NNW,336,6.0,13.0,95,0.01,,,0.24,VWS V14.01,2013-02-19 02:40:00,
2013-02-18 20:44:00,32.8,31.5,29.64,WNW,288,8.0,13.0,95,0.01,,,0.24,VWS V14.01,2013-02-19 02:44:00,
2013-02-18 20:49:00,32.8,31.5,29.65,NW,314,6.0,12.0,95,0.01,,,0.24,VWS V14.01,2013-02-19 02:49:00,
2013-02-18 20:50:00,32.8,31.5,29.65,NW,314,5.0,15.0,95,0.01,,,0.24,VWS V14.01,2013-02-19 02:50:00,
2013-02-18 20:55:00,32.8,31.5,29.65,WNW,296,10.0,14.0,95,0.01,,,0.24,VWS V14.01,2013-02-19 02:55:00,
2013-02-18 21:00:00,32.6,31.1,29.66,NW,304,6.0,14.0,94,0.01,,-RA,0.24,VWS V14.01,2013-02-19 03:00:00,
2013-02-18 21:07:00,32.4,30.9,29.66,NW,305,5.0,15.0,94,0.01,,-RA,0.24,VWS V14.01,2013-02-19 03:07:00,
2013-02-18 21:10:00,32.4,30.9,29.67,WNW,293,7.0,15.0,94,0.01,,,0.24,VWS V14.01,2013-02-19 03:10:00,
2013-02-18 21:12:00,32.2,30.7,29.67,NW,319,7.0,14.0,94,0.01,,-RA,0.24,VWS V14.01,2013-02-19 03:12:00,
2013-02-18 21:17:00,31.7,29.9,29.68,WNW,301,8.0,14.0,93,0.01,,-RA,0.24,VWS V14.01,2013-02-19 03:17:00,
2013-02-18 21:20:00,31.5,29.7,29.68,WNW,293,6.0,14.0,93,0.01,,,0.24,VWS V14.01,2013-02-19 03:20:00,
2013-02-18 21:23:00,31.1,29.0,29.68,NW,323,6.0,13.0,92,0.01,,,0.24,VWS V14.01,2013-02-19 03:23:00,
2013-02-18 21:28:00,30.6,28.6,29.69,WNW,295,6.0,15.0,92,0.01,,,0.24,VWS V14.01,2013-02-19 03:28:00,
2013-02-18 21:30:00,30.6,28.6,29.69,NW,314,5.0,15.0,92,0.01,,,0.24,VWS V14.01,2013-02-19 03:30:00,
2013-02-18 21:33:00,30.2,28.2,29.70,WNW,284,6.0,14.0,92,0.00,,,0.24,VWS V14.01,2013-02-19 03:33:00,
2013-02-18 21:38:00,29.7,27.4,29.70,NNW,339,5.0,16.0,91,0.00,,,0.24,VWS V14.01,2013-02-19 03:38:00,
2013-02-18 21:40:00,29.7,27.4,29.71,North,8,7.0,16.0,91,0.00,,,0.24,VWS V14.01,2013-02-19 03:40:00,
2013-02-18 21:43:00,29.4,27.4,29.71,NNW,328,7.0,12.0,92,0.00,,,0.24,VWS V14.01,2013-02-19 03:43:00,
2013-02-18 21:48:00,29.0,26.7,29.71,NW,321,5.0,12.0,91,0.00,,,0.24,VWS V14.01,2013-02-19 03:48:00,
2013-02-18 21:50:00,29.0,26.7,29.71,WNW,301,9.0,12.0,91,0.00,,,0.24,VWS V14.01,2013-02-19 03:50:00,
2013-02-18 21:54:00,28.6,26.3,29.72,NW,319,8.0,16.0,91,0.00,,,0.24,VWS V14.01,2013-02-19 03:54:00,
2013-02-18 21:59:00,28.3,25.8,29.72,WNW,291,4.0,16.0,90,0.00,,,0.24,VWS V14.01,2013-02-19 03:59:00,
2013-02-18 22:00:00,28.3,25.8,29.72,WNW,291,4.0,16.0,90,0.00,,,0.24,VWS V14.01,2013-02-19 04:00:00,
2013-02-18 22:04:00,28.2,25.6,29.73,WNW,293,8.0,11.0,90,0.00,,BKN090,0.24,VWS V14.01,2013-02-19 04:04:00,
2013-02-18 22:09:00,28.0,25.5,29.74,NW,307,12.0,12.0,90,0.00,,BKN090,0.24,VWS V14.01,2013-02-19 04:09:00,
2013-02-18 22:10:00,28.1,25.5,29.73,NW,314,11.0,20.0,90,0.00,,,0.24,VWS V14.01,2013-02-19 04:10:00,
2013-02-18 22:14:00,27.6,24.8,29.74,West,276,9.0,14.0,89,0.00,,BKN090,0.24,VWS V14.01,2013-02-19 04:14:00,
2013-02-18 22:19:00,27.3,24.2,29.74,WNW,294,6.0,11.0,88,0.00,,BKN090,0.24,VWS V14.01,2013-02-19 04:19:00,
2013-02-18 22:20:00,27.4,24.3,29.74,NW,318,8.0,14.0,88,0.00,,,0.24,VWS V14.01,2013-02-19 04:20:00,
2013-02-18 22:24:00,27.1,23.8,29.74,NW,311,7.0,17.0,87,0.00,,BKN013,0.24,VWS V14.01,2013-02-19 04:24:00,
2013-02-18 22:29:00,26.8,23.5,29.75,NNW,347,9.0,11.0,87,0.00,,BKN013,0.24,VWS V14.01,2013-02-19 04:29:00,
2013-02-18 22:30:00,26.9,23.6,29.75,NNE,15,9.0,17.0,87,0.00,,,0.24,VWS V14.01,2013-02-19 04:30:00,
2013-02-18 22:35:00,26.5,23.2,29.75,WNW,301,6.0,12.0,87,0.00,,BKN013,0.24,VWS V14.01,2013-02-19 04:35:00,
2013-02-18 22:40:00,26.2,22.9,29.75,NNW,343,6.0,11.0,87,0.00,,BKN015,0.24,VWS V14.01,2013-02-19 04:40:00,
2013-02-18 22:45:00,26.2,22.9,29.75,NNW,338,10.0,16.0,87,0.00,,BKN015,0.24,VWS V14.01,2013-02-19 04:45:00,
2013-02-18 22:50:00,26.1,22.8,29.75,NW,320,7.0,12.0,87,0.00,,BKN015,0.24,VWS V14.01,2013-02-19 04:50:00,
2013-02-18 22:55:00,26.0,22.7,29.75,WNW,295,6.0,14.0,87,0.00,,BKN015,0.24,VWS V14.01,2013-02-19 04:55:00,
2013-02-18 23:00:00,25.9,22.6,29.76,WNW,290,3.0,9.0,87,0.00,,BKN110,0.24,VWS V14.01,2013-02-19 05:00:00,
2013-02-18 23:01:00,25.8,22.5,29.76,NW,305,8.0,9.0,87,0.00,,BKN110,0.24,VWS V14.01,2013-02-19 05:01:00,
2013-02-18 23:07:00,25.6,22.0,29.76,NNW,330,3.0,13.0,86,0.00,,BKN110,0.24,VWS V14.01,2013-02-19 05:07:00,
2013-02-18 23:10:00,25.6,22.3,29.76,WNW,301,6.0,13.0,87,0.00,,,0.24,VWS V14.01,2013-02-19 05:10:00,
2013-02-18 23:12:00,25.4,21.8,29.77,NW,311,9.0,11.0,86,0.00,,BKN110,0.24,VWS V14.01,2013-02-19 05:12:00,
2013-02-18 23:17:00,25.3,21.7,29.77,NW,311,7.0,15.0,86,0.00,,BKN110,0.24,VWS V14.01,2013-02-19 05:17:00,
2013-02-18 23:20:00,25.3,21.4,29.77,WNW,295,8.0,15.0,85,0.00,,,0.24,VWS V14.01,2013-02-19 05:20:00,
2013-02-18 23:22:00,25.1,21.2,29.77,WNW,287,8.0,13.0,85,0.00,,OVC017,0.24,VWS V14.01,2013-02-19 05:22:00,
2013-02-18 23:27:00,25.0,21.1,29.77,North,3,9.0,15.0,85,0.00,,OVC017,0.24,VWS V14.01,2013-02-19 05:27:00,
2013-02-18 23:30:00,25.0,20.9,29.77,NW,309,8.0,15.0,84,0.00,,,0.24,VWS V14.01,2013-02-19 05:30:00,
2013-02-18 23:32:00,24.9,20.5,29.77,WNW,301,13.0,15.0,83,0.00,,OVC017,0.24,VWS V14.01,2013-02-19 05:32:00,
2013-02-18 23:38:00,24.7,20.3,29.77,NW,309,9.0,16.0,83,0.00,,OVC017,0.24,VWS V14.01,2013-02-19 05:38:00,
2013-02-18 23:40:00,24.7,20.0,29.78,NW,326,7.0,16.0,82,0.00,,,0.24,VWS V14.01,2013-02-19 05:40:00,
2013-02-18 23:43:00,24.6,20.2,29.78,NW,314,9.0,15.0,83,0.00,,OVC019,0.24,VWS V14.01,2013-02-19 05:43:00,
2013-02-18 23:48:00,24.6,20.5,29.78,NW,314,9.0,15.0,84,0.00,,OVC019,0.24,VWS V14.01,2013-02-19 05:48:00,
2013-02-18 23:50:00,24.6,20.5,29.78,NW,314,6.0,15.0,84,0.00,,,0.24,VWS V14.01,2013-02-19 05:50:00,
2013-02-18 23:53:00,24.6,20.5,29.79,NW,312,8.0,10.0,84,0.00,,OVC019,0.24,VWS V14.01,2013-02-19 05:53:00,
2013-02-18 23:58:00,24.5,20.4,29.78,NNW,330,7.0,14.0,84,0.00,,OVC019,0.24,VWS V14.01,2013-02-19 05:58:00,